Regional Weather Roundup
Issued by NWS New Orleans/Baton Rouge, LA

Home | Current Version | Previous Version | Graphics & Text | Print | Product List | Glossary On
Versions: 1 2 3 4 5 6 7 8 9 10 11 12 13 14 15 16 17 18 19 20 21 22 23 24 25 26 27 28 29 30 31 32 33 34 35 36 37 38 39 40 41 42 43 44 45 46 47 48 49 50
120
ASUS44 KLIX 170010
RWRLIX
NEW ORLEANS REGIONAL WEATHER ROUNDUP
NATIONAL WEATHER SERVICE NEW ORLEANS LA
700 PM CDT WED APR 16 2014

NOTE: "FAIR" INDICATES FEW OR NO CLOUDS BELOW 12,000 FEET WITH NO
      SIGNIFICANT WEATHER AND/OR OBSTRUCTIONS TO VISIBILITY.
      SKY/WX - SKY CONDITION AND SIGNIFICANT WEATHER.
      TMP - AIR TEMPERATURE.     DP    - DEWPOINT TEMPERATURE.
      RH  - RELATIVE HUMIDITY.   PRES  - PRESSURE.
      HI  - HEAT INDEX.          WCI   - WIND CHILL INDEX.

*  THESE STATIONS ARE NOT NWS OR FAA STATIONS AND ARE NOT UNDER
   NWS QUALITY CONTROL.

LAZ038-040-048-061>063-065>067-069-170100-
SOUTHEAST LOUISIANA

CITY           SKY/WX    TMP DP  RH WIND       PRES   REMARKS
N.O. AUDUBON     N/A     61  41  48 MISG        N/A
6HR MIN TEMP:  61; 6HR MAX TEMP:  65;

N.O. INTL ARPT PTCLDY    60  36  40 E6        30.11F
6HR MIN TEMP:  59; 6HR MAX TEMP:  63;

N.O. LAKEFRONT PTCLDY    58  37  45 E12       30.12F
6HR MIN TEMP:  58; 6HR MAX TEMP:  61;

N.O. DOWNTOWN*   N/A     61  39  44 SE3       30.12F
6HR MIN TEMP:  59; 6HR MAX TEMP:  63;

SLIDELL        CLEAR     57  40  52 SE8       30.12F
6HR MIN TEMP:  57; 6HR MAX TEMP:  63;

BATON ROUGE    MOCLDY    61  42  49 E6        30.10S
6HR MIN TEMP:  61; 6HR MAX TEMP:  67; 6HR PCP: TRACE;

BOOTHVILLE     MOCLDY    57  45  64 E8        30.14S
6HR MIN TEMP:  57; 6HR MAX TEMP:  61;

BELLE CHASSE   PTCLDY    58  44  60 E9        30.12F
6HR MIN TEMP:  58; 6HR MAX TEMP:  63;

BOGALUSA*        N/A     63  35  35 CALM      30.12S
6HR MIN TEMP:  60; 6HR MAX TEMP:  68;

GALLIANO*      PTCLDY    58  46  63 E6        30.12R
6HR MIN TEMP:  58; 6HR MAX TEMP:  64;

NEW ROADS*       N/A     61  39  43 SE5       30.10S
6HR MIN TEMP:  57; 6HR MAX TEMP:  65;

GONZALES*        N/A     61  45  56 E3        30.10S
6HR MIN TEMP:  60; 6HR MAX TEMP:  66;

HAMMOND*       MOCLDY    59  41  51 S5        30.13S
HOUMA*         PTCLDY    61  45  55 E8        30.11F
PORT FOURCHON* CLOUDY    59  46  63 E9G15     30.13S

$$

MSZ070-080>082-170100-
SOUTHERN MISSISSIPPI

CITY           SKY/WX    TMP DP  RH WIND       PRES   REMARKS
MCCOMB         PTCLDY    62  36  37 CALM      30.11S
6HR MIN TEMP:  57; 6HR MAX TEMP:  65;

GULFPORT       PTCLDY    59  44  57 SE8       30.14S
6HR MIN TEMP:  58; 6HR MAX TEMP:  62;

BILOXI         PTCLDY    56  43  61 SE7       30.14F
6HR MIN TEMP:  56; 6HR MAX TEMP:  59;

PASCAGOULA     PTCLDY    57  45  64 SE8       30.15S
6HR MIN TEMP:  57; 6HR MAX TEMP:  64;

STENNIS ARPT*  CLEAR     57  43  58 SE8       30.14S

$$

COASTAL OBSERVATIONS
LAKE AND NEARSHORE STATIONS

STATION/POSITION TIME  TEMP    WIND        PRES    WAVE
                       AIR SEA DIR/SP/G            HT/PER
                 (UTC) (F)     (DEG/KT/KT) (MB)    (FT/S)
PASCAGOULA       0000   59     150/  4/ 10 1020.5
WAVELAND YACHT   0000   56 67  140/ 10/ 11 1019.4
GRAND ISLE       0000   57 67   80/  6/ 12 1020.4
SOUTHWEST PASS   0000   61 58   60/ 12/ 14 1020.0
NEW CANAL        0000   60 63  120/  2/  6 1020.0
SHELL BEACH      0000   57 62  110/  9/ 12 1019.9

OFFSHORE STATIONS

STATION/POSITION TIME  TEMP    WIND        PRES    WAVE
                       AIR SEA DIR/SP/G            HT/PER
                 (UTC) (F)     (DEG/KT/KT) (MB)    (FT/S)

$$




USA.gov is the U.S. government's official web portal to all federal, state and local government web resources and services.